Wind_Speed
2 3 3 3 4 4 3 3 4 5 6 7 6 6 6 7 9 10 10 10 10 10 11 11 11 12 13 13 12 13 14 15 15 16 16 16 16 16 15 14 13 13 14 15 15 16 16 16 14 14 15 16 17 18 19 19 19 18 17 16 16 15 14 13 11 10 10 10 11 11 11 10 9 8
3 3 3 3 4 4 3 3 4 5 6 6 6 5 6 7 8 9 10 10 10 10 11 12 13 13 14 14 14 14 14 15 16 17 17 17 17 16 15 13 12 11 12 13 14 15 16 16 15 14 14 15 16 17 18 19 19 18 17 16 16 15 14 13 12 10 8 8 8 8 8 8 8 6
3 3 3 4 5 5 4 4 5 6 6 6 5 6 6 7 8 9 10 10 10 11 11 12 13 14 14 14 15 14 14 15 16 17 18 17 16 16 15 14 13 11 11 12 13 14 15 15 15 15 15 15 16 16 16 17 17 18 17 16 15 15 14 14 13 11 9 7 6 5 5 6 6 5
4 4 5 5 6 6 6 6 7 7 7 7 6 6 7 7 8 9 10 11 11 12 13 13 13 14 14 14 14 15 14 14 14 16 17 17 16 15 15 15 14 13 12 12 13 14 14 15 15 16 15 15 16 16 16 16 16 16 16 16 15 15 14 14 13 12 11 9 7 5 4 3 3 3
5 6 6 7 7 8 8 8 8 9 9 8 8 9 9 9 9 10 10 11 12 12 12 14 14 14 14 14 14 15 15 14 13 14 15 16 15 15 15 15 15 14 13 13 14 15 15 15 15 15 16 16 16 16 16 16 16 15 14 14 14 14 14 14 13 13 12 11 9 8 6 5 3 3
6 7 8 8 9 10 10 10 10 10 10 10 11 11 11 11 11 11 11 12 13 13 12 13 14 14 15 15 15 15 16 16 15 14 14 14 15 15 15 14 14 14 14 14 15 16 16 16 15 15 15 16 16 17 17 16 16 15 15 13 12 12 12 12 13 13 13 12 11 10 9 8 6 6
7 8 9 10 11 11 12 12 12 12 12 12 12 13 14 14 13 13 13 13 14 15 15 14 14 15 16 17 16 16 17 17 16 16 16 15 15 15 15 15 15 15 15 15 16 16 17 17 17 16 15 15 16 17 17 18 17 16 16 15 13 12 12 12 12 13 13 12 12 11 10 10 9 8
10 10 11 11 12 13 13 14 13 13 13 13 14 14 14 15 14 14 15 15 16 17 18 18 18 17 18 19 18 17 17 18 17 16 16 17 16 16 16 16 15 16 16 16 17 18 19 18 18 18 17 16 16 16 17 18 19 18 18 17 16 15 14 14 14 14 14 13 13 13 12 11 11 10
13 13 13 13 13 14 15 15 14 14 14 14 14 15 15 15 15 15 15 16 17 18 19 20 21 21 20 21 20 19 18 19 19 19 19 18 17 16 17 17 16 17 18 18 19 19 20 20 19 20 20 19 18 17 17 18 20 20 20 19 18 18 17 17 16 16 16 15 14 14 14 14 13 12
15 15 15 15 15 16 16 16 16 16 15 15 15 15 16 16 17 17 17 18 18 19 20 21 22 23 23 23 23 22 20 20 20 21 21 21 19 17 17 18 17 17 19 20 21 21 21 21 21 22 22 22 21 19 19 19 21 21 21 21 20 20 20 20 19 19 18 17 16 15 15 15 15 15
16 17 17 17 17 17 17 17 17 17 17 17 16 17 17 18 19 19 20 20 20 21 21 22 22 22 22 22 23 23 23 22 21 19 19 20 21 19 18 17 17 17 18 20 22 22 22 23 23 24 24 23 23 22 21 22 22 23 23 23 22 22 22 22 22 22 21 19 19 18 17 16 16 16
19 19 19 19 18 18 18 18 18 19 18 18 18 19 19 20 21 21 21 22 22 22 23 23 22 22 22 22 23 24 24 23 22 21 19 18 20 21 21 20 18 17 18 19 21 23 23 24 25 25 25 24 23 23 24 25 25 25 25 24 24 23 24 24 24 24 24 22 21 19 19 18 17 17
20 21 21 20 19 18 19 20 20 21 20 20 20 21 21 22 23 23 23 24 25 25 25 25 25 25 25 25 25 26 26 25 24 23 22 21 20 20 22 23 22 20 18 18 20 23 24 24 25 26 26 26 26 26 27 28 28 26 26 26 26 25 25 25 25 25 25 25 24 22 21 20 19 18
21 23 22 21 19 19 20 21 22 22 22 21 21 21 22 23 23 23 24 24 25 25 25 26 26 27 28 28 27 27 27 26 25 25 25 24 24 23 23 24 25 24 22 21 21 23 23 23 24 26 27 28 28 28 29 30 29 28 27 28 28 28 27 26 26 26 26 26 25 25 24 23 22 21
24 24 24 24 23 23 23 23 24 24 23 23 22 22 23 23 23 23 24 24 24 24 24 25 26 27 28 28 28 27 26 26 26 27 27 26 27 26 26 26 27 27 27 26 26 26 25 25 26 27 28 28 29 29 29 29 29 29 28 28 28 28 28 27 27 27 27 27 26 26 26 25 24 23
25 25 25 26 27 26 26 26 25 25 25 25 25 25 25 24 25 25 25 25 25 25 26 27 27 27 27 28 28 27 27 27 27 28 28 28 28 29 29 29 29 29 30 30 31 32 31 29 29 30 30 29 29 30 29 29 30 30 29 29 29 28 29 30 31 30 29 28 27 27 27 27 27 26
26 26 25 26 27 28 28 28 28 27 27 26 26 26 25 25 26 27 28 28 28 29 29 30 30 29 28 28 28 28 28 28 29 29 30 30 30 30 30 30 30 29 30 30 32 34 34 33 33 33 33 32 31 30 30 30 30 30 29 31 31 31 31 32 33 32 30 29 28 28 28 29 28 27
27 26 26 26 28 29 30 31 31 30 28 28 27 27 26 26 28 30 31 31 30 30 31 31 32 31 30 29 29 29 29 30 30 31 32 32 33 33 32 31 31 30 30 30 31 32 33 34 34 34 34 33 32 32 31 31 30 28 29 32 33 34 36 36 34 31 29 28 28 29 30 31 31 30
28 28 27 27 28 29 31 33 33 33 32 30 31 30 29 29 31 31 30 29 28 28 28 30 31 30 30 29 29 29 30 31 32 33 34 34 35 35 34 34 33 33 33 32 32 31 32 33 33 34 34 33 32 32 32 32 30 29 30 33 35 37 38 36 32 28 28 29 30 30 31 33 31 29
30 30 29 28 28 29 31 32 32 34 34 33 33 33 32 32 31 29 27 27 27 27 28 30 30 29 29 29 29 31 32 32 33 34 34 35 35 35 35 35 35 35 34 33 33 32 31 31 31 32 32 32 32 32 32 32 32 31 31 32 33 35 34 30 28 29 30 32 32 32 33 34 33 30
29 29 29 29 29 31 32 32 33 36 37 36 37 38 37 36 33 30 29 29 29 31 32 33 32 31 31 31 31 31 32 33 34 34 34 34 34 34 34 34 35 36 35 34 34 33 31 30 31 31 31 32 32 33 33 33 33 33 33 31 33 36 35 31 32 35 35 35 35 36 37 38 38 38
28 28 29 29 31 33 34 34 38 41 40 39 41 41 41 39 36 34 34 33 33 34 35 36 35 34 33 34 34 34 35 36 35 34 34 33 33 33 34 34 35 36 36 35 35 35 33 32 32 32 33 33 33 33 34 34 34 34 35 35 36 39 39 38 39 42 41 39 40 41 42 42 43 45
31 30 31 31 32 36 35 36 41 45 43 41 41 41 39 36 34 35 36 37 37 37 37 37 38 37 37 36 36 36 37 37 36 36 35 34 33 33 33 33 34 35 35 36 36 36 35 34 34 34 34 35 36 36 36 36 37 37 37 38 39 41 43 44 45 46 45 43 43 44 44 44 45 47
36 36 36 35 37 39 38 39 42 44 43 42 42 41 39 36 35 37 39 41 41 42 42 42 42 42 42 40 38 38 38 37 36 36 35 33 32 32 32 32 32 33 34 35 35 35 35 35 35 35 35 36 36 37 38 38 39 40 40 41 42 43 45 46 47 47 46 46 45 45 46 45 45 46
35 36 37 37 39 42 42 41 42 43 45 46 45 44 42 41 41 41 41 41 43 44 45 45 43 41 40 38 37 36 35 33 32 31 30 30 30 31 31 32 33 33 34 35 35 36 36 37 37 37 38 38 38 38 39 40 40 41 42 43 44 45 46 48 48 48 48 48 48 50 52 53 53 53
37 37 36 36 40 45 46 45 45 46 47 46 46 46 45 44 43 41 40 40 41 40 38 36 33 32 31 31 30 29 28 27 27 27 28 29 31 32 33 34 35 36 37 37 38 38 39 39 40 40 41 41 42 42 42 42 43 43 44 45 46 47 49 50 51 52 52 52 53 55 57 59 59 59
39 38 36 35 40 44 46 47 48 48 46 45 45 46 45 42 39 36 34 33 31 28 27 25 24 24 24 25 25 25 26 27 28 29 30 31 33 34 35 37 38 39 40 41 42 43 43 44 44 45 45 46 46 46 47 47 47 47 48 48 49 50 51 52 53 55 56 56 58 59 59 61 62 61
37 36 34 33 34 37 40 42 44 44 43 44 44 42 38 34 30 27 24 22 21 21 21 22 22 23 23 25 26 27 28 30 31 32 33 35 36 38 39 40 42 43 44 45 46 47 48 49 49 50 50 50 50 51 51 51 52 52 53 53 53 54 54 55 56 57 58 59 60 61 62 64 64 63
34 33 32 32 32 33 35 37 40 41 42 43 41 36 30 25 22 19 17 17 18 19 20 22 23 24 25 27 28 30 31 33 35 36 38 39 41 42 43 45 46 47 48 49 50 51 52 53 54 54 54 55 55 55 55 55 56 56 57 57 58 58 59 59 60 61 61 62 63 63 64 66 67 67
34 32 32 32 33 35 36 37 38 39 38 36 32 27 23 19 18 18 18 19 20 21 23 25 26 27 28 30 31 33 34 36 38 39 41 42 44 45 47 48 50 51 52 52 53 54 54 55 56 57 57 58 59 59 59 59 60 60 61 61 62 62 63 64 64 65 65 66 67 67 68 68 69 70
33 32 32 32 34 36 36 35 33 31 29 26 24 22 21 20 20 20 21 22 23 25 26 28 29 30 32 33 35 36 37 38 40 41 43 44 45 47 48 49 51 52 54 55 56 56 57 57 58 59 60 61 62 63 64 64 65 65 66 66 66 67 67 68 68 68 69 69 70 70 71 72 73 73
31 30 31 31 31 31 30 28 27 25 24 23 23 22 21 21 21 22 23 24 26 28 29 31 32 34 35 36 37 38 40 41 42 43 45 46 47 48 49 50 52 53 54 56 57 58 59 60 61 63 64 65 66 67 68 69 70 71 71 72 72 72 72 72 72 73 73 73 73 73 73 74 75 76
26 26 26 27 27 26 26 25 24 23 22 21 21 21 21 21 22 23 25 26 28 30 31 33 34 35 37 38 39 41 42 43 45 46 47 48 49 51 52 52 53 54 55 56 57 59 61 63 64 66 68 69 70 71 72 74 75 75 76 76 76 76 76 76 76 75 75 75 75 75 75 75 75 75
19 18 19 20 21 21 21 21 20 20 20 20 20 21 21 22 23 24 26 28 30 32 34 35 37 38 39 41 42 43 45 46 47 49 50 51 52 53 53 54 55 55 56 57 59 60 62 65 67 69 72 74 75 76 77 78 78 78 78 78 77 76 75 75 74 73 73 73 73 73 74 74 74 74
14 14 14 15 16 16 17 17 17 18 19 19 20 22 23 24 26 27 29 31 33 35 36 38 39 40 42 43 44 46 47 48 49 51 52 53 54 54 55 55 56 57 59 60 62 64 66 68 70 73 75 78 79 80 81 82 81 80 78 77 75 74 72 71 69 68 67 67 67 67 67 68 69 70
13 13 13 14 14 15 16 17 18 20 21 22 23 25 26 28 30 31 33 34 36 38 39 40 41 43 44 45 46 48 49 50 52 53 54 54 55 56 56 58 59 61 63 65 67 69 71 73 75 77 79 80 80 80 80 80 80 79 77 75 73 71 69 67 66 64 63 62 62 61 61 62 62 63
13 14 15 16 17 18 19 20 21 23 24 25 27 28 30 32 34 35 37 38 39 40 41 43 44 45 46 48 49 50 52 53 54 55 56 56 57 57 59 60 62 64 67 69 71 73 75 77 78 79 80 81 80 78 76 75 75 75 73 72 71 70 68 66 65 64 63 62 61 60 60 59 59 59
16 17 18 19 20 21 22 23 25 26 28 29 31 32 34 36 38 39 40 41 42 43 44 46 47 48 49 50 51 53 54 55 56 57 57 58 59 60 61 63 66 68 70 72 74 76 77 78 79 79 78 77 76 73 71 70 71 71 71 70 71 71 70 68 67 66 66 64 63 62 61 60 60 59
18 20 21 22 23 24 26 27 28 30 31 33 35 36 38 40 41 42 43 44 45 46 47 48 49 50 51 52 54 55 56 57 58 58 59 60 61 62 64 66 68 70 72 74 76 77 77 77 76 75 73 71 70 69 68 68 69 70 71 70 70 70 70 69 67 65 65 64 63 62 61 61 60 60
21 22 23 25 26 28 29 31 32 34 35 37 39 40 42 43 44 45 45 46 47 48 49 50 51 52 53 55 56 57 58 58 59 59 60 62 63 65 66 68 70 72 74 75 75 75 73 72 70 69 68 67 67 67 67 68 68 69 69 69 69 68 67 66 65 63 62 62 61 61 60 60 60 60
23 25 26 28 29 31 32 34 36 37 39 41 42 43 44 45 46 46 47 48 49 50 51 52 53 54 55 56 57 58 59 60 60 61 62 64 66 67 69 70 72 73 73 73 72 70 68 66 65 65 65 65 65 66 66 67 67 67 67 66 66 65 63 63 61 60 57 56 55 54 54 54 54 53
26 27 29 30 32 34 35 37 39 40 42 43 45 46 46 47 47 47 48 49 50 51 52 53 54 56 57 58 59 59 60 61 62 63 64 66 67 69 70 71 72 71 70 69 67 64 63 63 63 63 63 63 63 63 63 63 63 62 61 61 61 60 58 56 54 52 49 46 45 45 45 44 42 40
28 29 31 32 34 36 38 39 41 43 44 45 46 47 47 47 48 49 50 51 52 53 54 55 56 58 59 60 60 61 62 63 64 65 66 68 69 70 71 70 69 68 66 63 61 60 60 61 61 61 60 60 59 58 57 56 56 56 56 55 54 53 51 48 46 43 41 40 40 40 40 37 34 32
30 32 33 35 36 38 40 41 43 44 45 46 47 47 47 48 49 50 52 53 54 55 56 57 59 60 61 62 62 63 63 64 66 67 68 69 69 69 68 66 64 62 60 58 58 59 59 59 59 58 56 54 52 51 51 51 52 52 51 50 49 47 44 42 39 38 38 37 37 36 34 32 30 30
32 34 35 37 38 40 41 43 44 45 46 46 47 48 49 50 51 53 54 55 56 58 59 60 61 61 62 63 63 64 64 65 66 67 67 67 66 64 63 61 59 58 57 57 57 57 57 56 55 53 51 49 47 47 47 48 49 49 48 46 44 41 38 36 35 35 35 35 33 31 29 27 27 28
Wind_Direction
259 263 268 273 279 291 307 314 315 313 312 317 321 320 320 324 331 339 345 348 350 348 347 343 340 337 335 336 339 341 340 340 340 340 341 342 341 339 338 339 343 352 360 2 2 5 9 9 5 3 6 11 12 10 9 8 6 5 9 12 13 15 19 21 26 33 41 42 38 33 32 36 45 57
244 257 272 286 291 302 322 329 320 314 316 325 329 326 323 321 324 327 328 332 336 336 336 337 335 334 333 332 333 336 334 332 331 330 332 333 335 335 335 335 338 346 357 1 1 1 3 6 6 3 2 3 5 5 6 7 6 3 2 5 7 8 9 12 14 18 27 37 40 38 34 30 30 36
263 280 289 292 294 301 312 315 311 312 318 322 322 318 316 312 311 312 314 319 323 323 324 326 326 325 325 324 323 324 323 322 321 322 324 326 329 331 334 334 333 336 346 353 355 355 356 358 359 360 0 360 359 0 1 3 5 4 1 360 1 3 4 4 5 6 9 17 27 33 34 31 25 19
288 292 289 288 289 293 298 301 304 309 313 312 308 304 302 301 302 305 310 314 315 314 313 314 314 313 316 317 316 317 318 316 315 316 318 321 325 329 332 333 332 329 332 339 345 349 351 351 351 352 355 357 358 358 357 358 359 1 1 359 358 358 359 359 358 356 356 356 358 2 6 9 11 8
284 283 283 284 285 288 292 296 299 303 305 305 302 300 300 302 305 307 309 308 306 305 305 307 308 310 314 318 319 319 320 319 318 317 317 319 323 326 329 329 328 325 323 328 337 344 348 349 348 347 348 350 353 353 353 353 353 354 355 356 357 356 355 355 353 349 347 343 340 338 337 332 319 304
270 275 279 282 286 290 293 294 296 299 302 304 304 305 306 308 308 308 307 305 304 306 306 305 307 310 313 317 320 321 320 321 321 320 319 319 321 322 323 322 320 318 317 320 327 334 339 342 344 345 345 346 347 348 347 346 347 347 346 345 346 346 347 349 347 343 339 334 329 324 321 318 311 298
267 272 277 282 286 288 290 292 295 298 300 302 304 305 307 309 310 309 309 308 307 308 309 309 308 308 309 311 315 318 317 316 316 316 316 316 317 317 314 313 311 309 308 311 316 322 327 331 335 338 339 340 342 344 343 342 340 339 338 336 333 330 329 332 335 334 331 325 320 315 310 307 303 298
275 274 276 279 281 283 284 287 291 293 295 297 298 300 303 306 307 306 305 306 305 306 307 308 308 307 306 306 308 311 311 310 310 309 309 310 313 313 309 306 304 302 302 304 307 312 317 321 325 329 331 331 332 335 338 338 336 333 331 329 327 323 319 317 319 321 321 317 311 306 302 298 293 290
278 278 279 280 280 280 281 284 286 288 289 290 292 296 298 300 300 300 299 299 301 302 303 303 304 304 304 303 304 305 305 305 305 305 304 304 305 307 306 304 301 299 298 299 300 304 309 313 316 319 322 322 323 325 328 330 330 328 325 323 322 320 317 313 310 310 311 310 305 299 295 292 288 284
278 281 282 283 283 281 281 282 283 283 284 285 289 293 296 297 298 298 299 299 300 301 301 301 302 303 304 304 305 306 307 306 305 305 304 303 301 300 299 299 299 298 297 297 298 301 305 307 309 311 314 316 316 318 320 322 322 322 319 316 314 313 313 311 307 304 302 303 301 296 290 285 283 281
278 282 284 285 284 283 284 284 283 284 285 288 291 294 295 297 299 300 302 303 303 303 302 303 303 304 306 308 309 312 314 314 310 306 305 304 304 302 299 296 295 295 294 295 297 299 302 303 304 306 308 310 311 312 314 315 316 317 316 312 308 306 306 306 304 301 297 294 295 294 290 285 280 279
281 286 287 288 288 288 289 288 286 287 289 291 293 294 295 297 299 300 302 303 303 303 303 304 306 307 308 309 311 313 315 315 313 309 307 305 305 305 303 300 296 294 292 291 293 295 297 299 300 302 304 306 308 309 310 311 312 313 312 309 305 301 300 301 300 298 295 291 288 287 287 285 281 277
280 281 283 286 290 294 295 293 292 291 292 293 294 295 296 297 298 300 301 301 301 301 302 303 305 307 307 308 309 311 312 313 313 311 309 307 305 304 302 300 299 297 296 294 293 293 294 296 298 300 302 305 306 307 308 307 307 309 309 307 304 299 297 297 297 294 292 290 287 283 281 281 279 277
278 278 278 280 288 298 298 296 295 294 294 296 296 296 296 296 297 299 299 299 299 300 301 303 304 306 306 307 308 309 310 312 312 311 310 308 306 304 301 299 299 300 300 298 294 291 291 294 296 297 299 302 303 306 308 306 305 307 307 304 301 298 296 296 296 293 289 286 285 283 280 278 276 275
279 279 278 277 281 289 294 292 291 291 292 294 294 294 293 295 297 298 298 298 299 300 301 303 304 304 305 306 306 307 308 311 312 312 312 311 309 307 304 301 301 301 302 301 297 294 294 295 295 295 296 299 301 304 306 304 302 305 305 302 299 295 294 296 297 295 290 285 282 281 280 279 278 276
278 278 279 280 280 282 286 287 287 286 288 289 289 289 290 292 295 297 298 299 299 300 302 303 303 303 302 302 303 304 305 308 310 311 311 311 310 308 305 303 302 302 301 301 300 299 298 298 297 296 297 298 300 301 302 301 301 303 304 301 296 292 292 295 296 295 291 285 282 281 281 280 279 277
276 276 279 283 283 283 284 286 287 287 287 286 286 286 287 290 294 296 298 298 298 298 299 300 301 301 301 301 300 300 302 304 306 308 309 309 307 305 304 303 302 301 300 299 298 298 298 298 297 296 297 298 298 299 299 299 300 302 301 296 292 291 292 293 292 291 289 285 283 283 283 282 280 276
274 276 279 281 284 288 289 288 286 286 285 284 284 284 285 290 295 297 295 294 295 296 297 299 299 299 300 301 300 299 300 302 304 306 307 307 306 304 303 302 302 302 300 299 297 297 297 297 295 294 294 295 296 296 297 296 296 297 294 289 289 291 293 292 289 286 284 283 284 286 287 286 281 275
276 277 278 279 283 286 286 286 286 285 282 281 283 284 283 287 294 296 294 294 295 297 299 301 301 300 300 299 298 298 300 302 303 304 304 305 304 304 304 304 304 304 303 302 300 299 297 295 293 292 291 292 292 293 294 293 292 288 284 285 289 290 290 287 283 281 284 286 287 287 287 287 282 274
278 279 279 280 282 280 279 280 282 282 280 280 282 282 281 284 289 292 294 296 296 295 299 302 302 301 300 299 298 298 298 300 301 302 302 302 302 303 303 303 303 302 302 302 301 300 298 296 294 292 290 290 290 291 291 290 289 286 284 286 288 286 285 282 279 282 287 288 286 283 281 281 279 275
276 276 277 281 283 283 280 279 279 280 281 281 282 282 281 281 283 285 290 294 293 292 296 300 301 300 299 298 296 295 296 299 300 300 300 298 296 296 296 297 298 298 298 298 297 297 296 295 294 293 291 289 289 289 289 287 286 285 284 282 279 278 280 284 285 287 288 287 284 280 276 274 273 273
275 273 275 277 279 279 278 279 280 279 280 281 282 284 285 282 279 282 288 291 290 291 295 297 297 297 295 294 294 295 297 299 299 297 295 292 290 289 289 290 291 292 292 293 293 293 292 291 291 290 289 287 286 286 286 285 283 282 281 279 276 274 276 279 281 283 284 284 284 281 274 269 268 269
276 274 274 274 272 272 273 276 276 276 278 282 283 285 287 284 279 282 286 286 286 289 293 293 293 293 291 290 290 293 295 296 295 293 291 288 287 287 287 287 288 289 290 291 292 293 292 291 290 289 288 286 285 284 283 282 281 279 278 277 276 275 275 276 277 279 280 281 281 277 269 264 262 263
277 276 275 275 275 274 273 272 270 271 278 283 283 284 285 283 283 287 286 283 284 288 291 292 290 289 287 286 288 292 293 291 290 289 288 287 288 289 289 289 288 289 290 291 292 293 293 293 292 291 289 288 286 285 283 281 280 278 277 276 275 275 275 276 277 278 278 277 276 272 268 266 265 265
280 278 278 281 280 275 272 271 270 273 279 280 281 283 283 282 285 288 286 284 286 288 290 290 288 286 286 287 288 289 288 286 286 287 288 290 292 293 294 294 293 293 293 292 292 293 294 294 294 293 292 290 288 287 285 283 281 279 278 277 275 275 274 274 275 275 275 274 272 270 270 272 273 273
281 282 283 284 280 274 272 271 271 275 278 279 281 284 283 283 285 286 285 284 285 285 285 285 284 284 286 287 287 287 288 289 291 294 296 298 298 298 298 298 298 298 298 297 296 296 295 294 294 293 292 291 290 288 287 285 284 282 280 279 278 277 276 275 274 274 274 274 272 271 271 272 274 275
284 286 285 283 279 278 277 275 273 274 276 279 283 285 284 284 285 284 283 283 282 282 283 284 286 289 290 291 292 294 297 298 300 300 301 301 301 301 301 301 300 300 299 299 298 298 297 296 295 294 293 292 291 290 289 287 286 284 283 281 280 279 278 277 277 276 276 276 275 274 273 273 273 274
285 288 286 283 282 282 282 279 277 277 277 278 281 282 281 281 282 282 283 284 285 287 289 290 292 294 295 297 299 300 301 301 302 302 302 301 301 301 301 301 301 300 300 300 299 299 298 298 297 296 295 293 292 291 290 289 288 286 285 283 282 280 279 278 277 277 277 277 276 276 276 275 275 274
282 285 284 282 279 277 276 275 275 276 276 275 275 274 274 276 279 282 287 289 291 291 292 293 295 297 298 300 301 302 303 304 305 305 305 305 304 303 303 302 302 302 302 302 301 301 300 299 299 298 297 296 294 293 292 290 289 288 286 285 283 282 280 279 278 277 276 275 275 275 275 275 275 275
283 283 281 278 275 272 271 270 269 269 268 268 268 269 272 277 282 287 290 292 293 294 295 297 299 301 303 304 306 307 308 308 309 308 308 307 306 306 305 305 304 304 303 303 302 301 300 300 299 299 298 297 296 295 294 293 291 290 288 287 285 284 282 281 279 278 277 275 274 273 273 272 272 272
284 282 276 271 267 265 264 264 264 265 268 272 276 280 284 287 289 292 294 297 299 301 302 304 306 308 309 310 310 311 310 309 308 307 306 306 305 304 304 304 303 303 303 302 302 301 300 300 299 299 298 298 297 297 296 295 293 292 290 289 287 285 283 282 280 279 277 276 275 274 273 272 271 270
277 273 268 264 262 263 266 269 274 279 283 287 290 292 295 298 302 305 307 308 309 310 310 310 310 311 310 310 310 309 308 306 306 305 304 304 303 303 303 302 302 302 302 302 302 301 301 301 301 300 300 299 298 298 297 296 295 293 292 290 289 287 285 283 281 280 278 276 275 273 272 271 271 270
272 271 270 271 274 276 280 285 290 294 297 300 303 307 311 314 315 315 313 312 311 310 309 308 308 308 308 307 307 306 305 305 304 304 304 303 303 303 303 302 301 301 301 301 301 301 301 301 301 301 300 299 298 298 297 296 295 294 293 291 290 289 287 285 283 281 280 278 276 274 273 271 270 270
274 276 280 284 288 292 296 301 306 309 312 313 314 315 314 313 310 308 306 305 304 304 304 304 305 306 306 305 305 305 305 304 304 304 304 304 303 303 302 302 301 301 301 301 301 301 301 301 301 301 301 300 299 298 297 297 296 295 294 293 291 290 289 287 286 284 282 281 279 277 275 274 272 271
278 284 289 295 300 303 306 308 309 309 308 307 306 305 303 302 301 301 301 301 301 302 303 304 305 305 304 304 304 304 304 304 304 304 304 304 304 304 303 303 303 302 303 303 303 303 303 303 303 303 302 302 302 301 300 298 297 297 296 295 294 294 292 291 290 289 287 285 283 281 279 277 275 274
282 287 290 293 295 295 296 296 296 296 296 296 297 297 297 298 299 299 300 300 301 301 303 304 304 304 304 304 304 304 305 305 305 305 305 305 305 305 304 304 304 304 304 304 304 304 304 304 304 303 303 302 302 301 301 300 298 297 297 297 296 296 296 295 295 293 292 290 289 286 284 282 279 277
285 286 286 286 287 287 288 288 289 290 291 293 294 296 297 298 299 300 300 301 302 303 304 304 304 304 304 305 305 305 306 306 306 306 306 306 305 305 305 305 305 305 305 305 305 305 304 304 303 302 301 300 300 300 300 300 300 299 298 298 297 297 296 296 295 294 293 291 290 288 286 284 282 280
282 283 284 284 284 284 285 286 288 290 292 294 295 297 298 299 300 301 302 303 304 305 305 305 305 305 305 305 306 306 307 307 307 307 306 306 306 306 306 306 306 306 305 305 305 304 303 302 302 301 300 299 299 299 299 300 300 299 299 298 298 297 296 295 294 293 292 290 288 287 285 284 282 280
282 284 285 285 286 287 288 290 291 293 294 296 297 298 299 301 302 303 304 305 305 305 305 305 305 305 306 306 307 307 307 307 307 307 307 306 306 306 306 306 306 305 305 304 304 303 302 302 301 300 300 300 300 300 300 300 300 299 299 298 297 296 296 295 293 292 290 289 287 286 284 283 281 280
285 286 287 288 289 290 291 292 293 295 296 298 299 300 301 302 303 304 305 305 305 305 305 305 306 306 307 307 307 308 308 307 307 307 307 306 306 306 306 305 305 305 304 304 303 303 302 302 302 302 302 302 302 302 301 301 301 300 300 299 299 298 297 296 295 293 291 289 288 286 283 281 280 279
288 288 289 290 290 291 292 294 295 296 297 298 299 300 301 302 303 304 304 304 304 305 305 306 306 307 307 307 308 308 308 308 307 307 307 306 306 306 305 305 305 305 304 304 303 303 303 303 304 304 303 303 303 302 302 302 302 302 302 302 301 301 300 299 298 297 294 292 290 288 285 284 283 281
289 289 290 290 291 292 292 293 294 295 296 298 299 300 301 302 302 302 303 303 304 305 306 306 307 307 308 308 308 308 308 308 307 307 307 307 307 307 306 306 306 305 305 304 304 304 304 304 304 303 303 302 302 302 302 303 303 304 304 304 304 303 303 302 302 300 299 296 294 291 290 289 286 283
288 289 289 290 290 291 292 293 294 295 296 297 298 299 299 300 300 302 303 304 306 306 307 307 308 308 308 308 308 308 308 308 308 308 308 308 308 307 307 307 306 305 304 304 304 304 303 303 303 303 303 303 304 305 306 307 308 308 308 307 306 306 306 305 304 303 301 299 296 293 291 288 282 276
290 290 290 291 291 291 292 292 293 294 295 296 297 297 298 299 301 303 305 306 307 308 308 309 309 309 309 309 308 308 308 308 308 308 308 308 308 307 307 306 305 304 304 304 304 304 304 304 304 304 305 306 307 309 310 311 312 312 311 310 310 310 309 308 306 304 302 299 297 294 290 283 275 271
291 291 291 292 292 292 292 293 293 294 295 296 296 297 298 300 303 305 307 308 309 309 309 309 308 308 308 308 308 308 308 308 308 309 309 308 308 307 307 306 305 305 304 305 305 305 305 305 305 306 306 308 310 312 313 314 315 315 314 313 312 311 309 308 306 305 302 300 299 296 290 281 273 270
Height
5932 5933 5932 5932 5931 5931 5931 5931 5931 5931 5930 5930 5930 5930 5929 5928 5928 5927 5926 5926 5925 5924 5924 5923 5923 5922 5921 5920 5919 5918 5916 5915 5914 5913 5912 5911 5910 5909 5908 5907 5905 5903 5901 5900 5899 5898 5897 5895 5894 5893 5892 5890 5889 5888 5887 5886 5884 5883 5882 5881 5880 5879 5879 5877 5876 5875 5874 5873 5873 5872 5872 5871 5870 5870
5932 5932 5932 5931 5931 5931 5931 5931 5931 5930 5930 5930 5930 5930 5929 5929 5928 5927 5926 5926 5925 5924 5923 5923 5922 5921 5920 5919 5918 5917 5916 5915 5914 5913 5912 5911 5910 5909 5907 5906 5905 5903 5902 5900 5899 5898 5897 5895 5894 5893 5892 5890 5889 5888 5887 5886 5885 5884 5883 5881 5880 5880 5879 5878 5878 5877 5876 5875 5874 5873 5873 5872 5872 5871
5932 5931 5931 5931 5930 5930 5930 5930 5930 5930 5930 5929 5929 5929 5929 5928 5928 5927 5926 5925 5924 5923 5923 5922 5921 5920 5919 5918 5917 5916 5915 5914 5913 5912 5911 5911 5909 5908 5906 5905 5904 5903 5902 5900 5900 5898 5897 5896 5894 5893 5892 5890 5889 5888 5887 5886 5885 5884 5883 5882 5881 5880 5879 5879 5878 5878 5877 5876 5875 5874 5874 5873 5873 5873
5931 5931 5931 5930 5930 5929 5929 5929 5929 5929 5929 5929 5928 5928 5928 5927 5927 5926 5925 5924 5923 5923 5922 5921 5921 5920 5919 5918 5917 5915 5914 5914 5913 5912 5911 5910 5908 5907 5906 5904 5903 5902 5901 5900 5899 5898 5897 5896 5894 5893 5891 5890 5889 5888 5886 5885 5884 5883 5883 5882 5881 5880 5879 5878 5878 5878 5877 5877 5876 5875 5874 5874 5873 5873
5931 5930 5930 5929 5929 5928 5928 5928 5928 5928 5927 5927 5927 5927 5927 5926 5926 5925 5924 5923 5922 5922 5921 5920 5920 5919 5918 5917 5916 5914 5913 5913 5912 5911 5910 5909 5907 5906 5905 5904 5903 5902 5901 5900 5899 5898 5897 5895 5894 5893 5891 5890 5888 5887 5886 5885 5884 5883 5882 5881 5881 5880 5879 5878 5877 5877 5877 5876 5876 5876 5875 5874 5874 5873
5929 5929 5929 5928 5928 5928 5927 5927 5927 5926 5926 5925 5925 5925 5925 5925 5924 5923 5923 5922 5921 5920 5920 5919 5918 5917 5916 5915 5915 5914 5913 5912 5911 5910 5909 5908 5906 5905 5904 5903 5902 5901 5900 5899 5898 5897 5896 5895 5893 5892 5891 5889 5888 5886 5885 5884 5883 5882 5881 5880 5880 5879 5879 5878 5877 5876 5876 5875 5875 5875 5875 5874 5873 5873
5928 5928 5928 5927 5927 5926 5926 5926 5925 5925 5925 5924 5924 5923 5923 5923 5922 5922 5921 5920 5919 5918 5918 5917 5917 5916 5915 5914 5914 5913 5912 5911 5910 5909 5907 5906 5905 5904 5902 5901 5900 5899 5898 5897 5896 5895 5894 5893 5892 5891 5890 5888 5887 5886 5885 5883 5882 5881 5880 5879 5878 5878 5877 5877 5876 5876 5875 5874 5874 5873 5873 5873 5872 5872
5927 5927 5926 5926 5925 5925 5925 5924 5924 5924 5923 5923 5922 5922 5922 5921 5921 5921 5920 5919 5918 5917 5916 5915 5915 5914 5914 5912 5912 5911 5910 5909 5908 5907 5906 5904 5903 5902 5901 5900 5899 5898 5897 5896 5895 5894 5893 5891 5890 5889 5888 5887 5886 5885 5883 5882 5881 5880 5879 5878 5877 5876 5875 5875 5875 5874 5874 5873 5872 5872 5871 5871 5870 5870
5926 5925 5925 5925 5924 5924 5923 5923 5923 5922 5922 5922 5921 5921 5920 5920 5919 5919 5918 5917 5916 5916 5915 5913 5912 5912 5911 5910 5909 5909 5909 5907 5906 5904 5903 5902 5902 5901 5899 5898 5897 5896 5895 5894 5893 5892 5891 5890 5889 5887 5886 5885 5885 5884 5882 5881 5880 5879 5878 5877 5876 5875 5874 5873 5872 5872 5872 5871 5871 5870 5870 5869 5869 5868
5924 5923 5923 5923 5922 5922 5922 5921 5921 5921 5920 5920 5919 5919 5918 5917 5917 5916 5916 5915 5914 5913 5913 5912 5910 5909 5909 5908 5906 5906 5906 5905 5904 5902 5900 5899 5899 5898 5897 5896 5895 5894 5893 5892 5891 5890 5889 5888 5887 5886 5884 5883 5882 5882 5881 5880 5879 5877 5876 5876 5875 5874 5873 5872 5871 5870 5869 5869 5868 5868 5867 5867 5867 5866
5921 5921 5921 5921 5921 5920 5920 5920 5919 5919 5918 5918 5917 5917 5916 5915 5914 5913 5913 5912 5911 5911 5910 5909 5908 5907 5906 5905 5904 5903 5903 5903 5902 5901 5899 5897 5896 5895 5895 5894 5893 5893 5892 5890 5889 5888 5887 5886 5885 5884 5882 5881 5880 5879 5879 5878 5877 5876 5875 5873 5872 5871 5870 5869 5868 5867 5867 5866 5866 5865 5864 5864 5864 5864
5919 5919 5918 5918 5918 5919 5918 5918 5918 5917 5916 5916 5915 5914 5913 5912 5911 5910 5910 5909 5908 5907 5906 5906 5905 5904 5903 5903 5902 5901 5900 5899 5899 5898 5898 5897 5895 5893 5892 5891 5891 5891 5890 5889 5888 5887 5885 5884 5882 5881 5880 5879 5879 5877 5876 5875 5874 5873 5872 5871 5870 5869 5868 5867 5865 5864 5864 5863 5863 5862 5862 5861 5861 5860
5917 5916 5916 5916 5916 5916 5916 5916 5916 5915 5914 5914 5913 5912 5911 5910 5909 5908 5907 5906 5905 5904 5903 5902 5902 5901 5900 5899 5899 5898 5897 5896 5895 5895 5894 5894 5893 5892 5890 5888 5888 5889 5889 5888 5886 5885 5883 5882 5880 5879 5878 5877 5876 5875 5874 5872 5871 5870 5869 5868 5867 5866 5864 5863 5862 5861 5860 5859 5859 5859 5859 5858 5858 5857
5916 5915 5914 5915 5914 5914 5914 5913 5913 5912 5912 5911 5910 5909 5908 5907 5906 5905 5904 5903 5903 5902 5901 5900 5899 5898 5897 5896 5895 5894 5893 5892 5892 5891 5891 5891 5890 5890 5888 5886 5885 5885 5886 5885 5884 5882 5881 5880 5878 5877 5875 5874 5873 5872 5871 5869 5868 5867 5866 5865 5863 5862 5861 5860 5859 5858 5857 5856 5855 5855 5855 5855 5855 5854
5912 5912 5912 5912 5911 5911 5910 5910 5909 5909 5909 5908 5907 5906 5905 5904 5904 5903 5902 5901 5900 5899 5898 5897 5897 5895 5894 5893 5892 5891 5890 5889 5888 5888 5887 5887 5887 5886 5885 5884 5882 5882 5881 5881 5880 5878 5878 5877 5876 5873 5872 5871 5870 5869 5868 5866 5864 5863 5862 5861 5860 5859 5858 5857 5856 5855 5854 5853 5852 5851 5851 5851 5851 5851
5909 5909 5908 5908 5907 5907 5907 5906 5905 5905 5905 5904 5903 5902 5902 5901 5901 5900 5899 5898 5897 5896 5895 5894 5894 5892 5891 5890 5889 5888 5887 5886 5885 5884 5884 5884 5883 5882 5881 5881 5880 5880 5879 5877 5876 5874 5873 5873 5872 5869 5868 5868 5866 5865 5864 5863 5861 5860 5858 5857 5856 5855 5855 5854 5852 5851 5851 5850 5849 5848 5847 5847 5846 5846
5905 5905 5905 5905 5905 5904 5904 5903 5903 5902 5901 5901 5900 5899 5898 5898 5897 5897 5896 5895 5894 5893 5892 5891 5890 5889 5888 5887 5886 5885 5884 5883 5882 5881 5881 5880 5879 5878 5877 5877 5877 5876 5876 5875 5873 5871 5869 5869 5868 5865 5864 5864 5863 5862 5861 5859 5858 5857 5855 5853 5851 5851 5851 5850 5849 5848 5847 5846 5845 5844 5844 5843 5843 5842
5901 5902 5903 5902 5902 5901 5900 5900 5899 5899 5898 5897 5896 5895 5895 5894 5893 5893 5892 5892 5891 5890 5889 5888 5887 5886 5885 5884 5883 5881 5881 5880 5879 5878 5877 5876 5875 5874 5873 5872 5872 5872 5872 5871 5870 5868 5866 5865 5864 5862 5861 5860 5859 5858 5857 5856 5855 5855 5852 5850 5849 5848 5847 5846 5845 5844 5843 5842 5841 5841 5840 5840 5839 5838
5899 5899 5900 5900 5900 5899 5898 5896 5896 5895 5894 5893 5893 5892 5891 5890 5890 5889 5889 5888 5887 5887 5886 5885 5883 5883 5882 5881 5880 5878 5878 5877 5876 5875 5874 5872 5871 5869 5869 5868 5867 5867 5867 5866 5865 5864 5863 5861 5859 5858 5857 5856 5855 5854 5853 5852 5852 5852 5850 5848 5846 5844 5843 5841 5840 5840 5839 5838 5838 5837 5837 5836 5835 5834
5896 5896 5897 5897 5897 5896 5894 5892 5892 5891 5890 5889 5889 5888 5887 5886 5886 5885 5885 5884 5883 5883 5882 5881 5880 5879 5878 5878 5876 5875 5874 5873 5872 5871 5870 5868 5867 5865 5864 5863 5862 5861 5861 5860 5859 5858 5857 5856 5854 5853 5852 5851 5850 5849 5848 5848 5847 5847 5846 5845 5843 5840 5839 5837 5836 5835 5835 5834 5834 5833 5833 5832 5831 5830
5894 5894 5893 5892 5892 5891 5890 5889 5888 5886 5885 5885 5884 5883 5882 5882 5881 5881 5881 5880 5879 5878 5877 5876 5876 5875 5874 5873 5872 5871 5870 5869 5868 5866 5865 5864 5862 5861 5859 5858 5856 5855 5854 5854 5853 5852 5852 5850 5849 5847 5847 5846 5845 5844 5843 5843 5842 5841 5840 5840 5839 5837 5835 5833 5831 5830 5830 5829 5829 5828 5828 5827 5826 5825
5890 5889 5888 5887 5888 5887 5887 5886 5884 5881 5880 5880 5879 5879 5878 5877 5877 5877 5877 5876 5875 5873 5872 5871 5870 5870 5869 5868 5867 5865 5864 5863 5862 5860 5859 5858 5857 5855 5854 5852 5851 5850 5849 5848 5847 5846 5846 5845 5844 5843 5841 5840 5839 5839 5838 5837 5837 5836 5835 5834 5833 5831 5830 5828 5826 5825 5825 5824 5824 5823 5821 5821 5820 5819
5885 5885 5884 5884 5884 5883 5883 5882 5878 5875 5875 5875 5875 5874 5874 5873 5873 5873 5872 5871 5870 5869 5868 5867 5866 5864 5863 5862 5861 5859 5858 5856 5855 5854 5853 5852 5851 5849 5848 5847 5846 5845 5844 5843 5842 5841 5840 5840 5839 5838 5836 5835 5834 5833 5833 5832 5831 5830 5829 5828 5827 5826 5824 5822 5821 5819 5819 5819 5818 5816 5815 5813 5812 5811
5880 5880 5879 5879 5878 5877 5878 5876 5872 5870 5870 5871 5870 5869 5869 5869 5869 5868 5867 5866 5864 5863 5862 5861 5860 5859 5857 5856 5855 5853 5852 5850 5849 5848 5847 5846 5845 5844 5843 5843 5842 5841 5840 5839 5837 5836 5835 5834 5833 5832 5832 5830 5829 5828 5827 5826 5825 5824 5823 5821 5820 5819 5818 5816 5815 5814 5813 5812 5811 5810 5807 5805 5804 5803
5875 5874 5874 5873 5872 5871 5871 5870 5867 5866 5866 5866 5865 5865 5865 5864 5864 5863 5862 5860 5859 5857 5856 5855 5853 5852 5851 5850 5849 5847 5846 5845 5844 5843 5842 5842 5841 5840 5839 5838 5837 5836 5835 5834 5833 5832 5831 5829 5828 5827 5826 5825 5824 5823 5821 5820 5819 5818 5817 5815 5814 5812 5811 5810 5808 5807 5806 5805 5804 5802 5800 5797 5795 5795
5871 5870 5869 5868 5866 5864 5864 5864 5864 5863 5862 5861 5861 5860 5860 5859 5858 5857 5856 5854 5853 5851 5850 5849 5847 5846 5845 5844 5843 5842 5841 5840 5840 5839 5838 5837 5837 5836 5835 5834 5832 5831 5830 5829 5827 5826 5825 5824 5823 5821 5820 5818 5817 5816 5815 5814 5813 5812 5810 5809 5808 5806 5804 5803 5801 5799 5798 5797 5795 5793 5791 5789 5787 5786
5866 5866 5865 5864 5862 5860 5859 5859 5859 5858 5858 5858 5857 5856 5854 5853 5852 5851 5849 5848 5847 5846 5845 5844 5843 5841 5840 5839 5838 5837 5837 5836 5835 5835 5834 5833 5832 5831 5830 5828 5827 5826 5824 5823 5821 5820 5819 5817 5816 5815 5814 5812 5811 5809 5808 5807 5806 5804 5803 5802 5801 5799 5797 5795 5793 5791 5790 5788 5786 5784 5782 5780 5779 5778
5862 5861 5860 5858 5857 5856 5855 5855 5854 5854 5853 5853 5852 5851 5850 5849 5847 5846 5844 5843 5843 5842 5841 5840 5839 5838 5836 5835 5834 5834 5833 5832 5831 5830 5830 5829 5827 5826 5825 5823 5821 5820 5818 5816 5815 5813 5811 5810 5808 5807 5806 5804 5803 5802 5800 5799 5797 5796 5794 5793 5792 5790 5789 5787 5785 5783 5781 5780 5778 5776 5774 5771 5769 5769
5856 5855 5854 5853 5852 5851 5851 5850 5850 5849 5849 5848 5847 5847 5845 5844 5843 5842 5841 5840 5839 5838 5838 5837 5836 5835 5834 5833 5831 5830 5829 5828 5827 5826 5824 5823 5821 5819 5818 5816 5815 5813 5811 5809 5807 5805 5803 5801 5799 5797 5796 5795 5793 5792 5791 5790 5788 5786 5785 5783 5782 5780 5779 5777 5776 5774 5772 5770 5769 5767 5765 5763 5761 5759
5851 5850 5849 5848 5847 5846 5846 5845 5845 5844 5844 5843 5842 5842 5841 5840 5839 5839 5838 5837 5836 5835 5834 5833 5832 5831 5830 5829 5828 5827 5825 5824 5822 5821 5819 5817 5815 5813 5811 5808 5806 5805 5803 5801 5800 5798 5796 5794 5791 5789 5787 5785 5783 5782 5781 5780 5778 5776 5775 5773 5771 5769 5768 5766 5765 5763 5762 5760 5758 5756 5755 5753 5751 5750
5846 5845 5844 5843 5843 5842 5841 5841 5840 5839 5839 5838 5838 5837 5837 5836 5835 5834 5834 5833 5832 5831 5830 5829 5828 5826 5825 5824 5823 5822 5820 5819 5817 5816 5814 5812 5810 5808 5805 5803 5800 5798 5795 5793 5792 5790 5788 5786 5783 5781 5779 5776 5774 5772 5770 5768 5767 5765 5763 5762 5760 5758 5756 5755 5753 5751 5750 5748 5746 5745 5743 5741 5740 5738
5841 5841 5840 5839 5838 5837 5837 5836 5836 5835 5835 5834 5834 5833 5833 5832 5831 5830 5830 5829 5828 5826 5825 5824 5823 5822 5821 5820 5818 5817 5815 5814 5812 5811 5809 5807 5804 5802 5800 5798 5795 5792 5789 5786 5784 5781 5779 5777 5774 5772 5770 5767 5765 5762 5760 5757 5755 5753 5750 5748 5746 5744 5742 5741 5739 5738 5736 5735 5733 5732 5731 5729 5727 5726
5836 5836 5835 5834 5834 5833 5833 5832 5831 5831 5830 5830 5829 5829 5829 5828 5828 5827 5826 5825 5824 5823 5822 5820 5819 5818 5817 5815 5813 5812 5810 5808 5807 5805 5802 5800 5798 5795 5793 5791 5789 5786 5784 5781 5778 5775 5772 5769 5766 5763 5760 5757 5755 5753 5750 5746 5743 5741 5738 5734 5732 5729 5727 5726 5724 5722 5721 5720 5718 5717 5717 5716 5714 5713
5832 5832 5831 5831 5831 5830 5829 5828 5828 5827 5827 5826 5826 5826 5826 5826 5825 5824 5824 5822 5821 5820 5818 5816 5815 5813 5812 5810 5808 5806 5804 5802 5800 5798 5795 5793 5790 5788 5786 5783 5780 5778 5776 5773 5771 5768 5765 5761 5757 5753 5749 5745 5741 5740 5738 5735 5731 5728 5725 5721 5719 5716 5713 5712 5710 5708 5706 5705 5703 5702 5701 5700 5699 5699
5830 5829 5829 5828 5828 5827 5826 5826 5826 5825 5825 5825 5824 5824 5823 5823 5822 5821 5820 5819 5817 5815 5814 5812 5810 5808 5806 5804 5802 5800 5798 5796 5793 5790 5788 5785 5782 5780 5777 5774 5772 5769 5767 5764 5761 5758 5755 5752 5748 5744 5739 5734 5728 5724 5722 5720 5718 5715 5710 5706 5704 5702 5699 5698 5696 5694 5692 5691 5690 5688 5687 5686 5685 5684
5827 5827 5827 5826 5826 5825 5825 5825 5824 5824 5823 5823 5822 5821 5820 5819 5818 5817 5816 5814 5813 5811 5809 5807 5805 5803 5801 5799 5796 5794 5791 5789 5786 5783 5780 5778 5775 5772 5769 5766 5762 5759 5756 5754 5751 5747 5744 5741 5737 5733 5729 5724 5719 5713 5708 5705 5703 5702 5699 5694 5692 5690 5688 5686 5684 5682 5680 5678 5677 5675 5674 5673 5672 5671
5824 5824 5824 5824 5824 5823 5823 5823 5822 5821 5821 5820 5819 5818 5816 5815 5814 5812 5811 5809 5807 5805 5803 5801 5799 5797 5794 5792 5789 5787 5784 5781 5778 5775 5772 5770 5767 5764 5760 5757 5754 5750 5747 5743 5740 5737 5734 5730 5726 5723 5719 5714 5710 5705 5699 5693 5690 5689 5687 5684 5681 5679 5678 5676 5673 5671 5669 5667 5665 5664 5662 5661 5659 5659
5821 5821 5821 5821 5821 5821 5820 5820 5819 5818 5817 5816 5815 5813 5812 5810 5808 5807 5805 5803 5801 5799 5797 5795 5793 5790 5788 5785 5782 5779 5776 5773 5770 5767 5765 5762 5759 5756 5752 5749 5745 5741 5737 5733 5730 5726 5723 5719 5715 5712 5708 5704 5700 5696 5692 5687 5681 5677 5675 5674 5671 5667 5666 5665 5663 5660 5657 5655 5653 5652 5651 5650 5648 5647
5818 5818 5818 5818 5817 5817 5816 5816 5815 5814 5813 5811 5810 5808 5806 5805 5803 5801 5799 5797 5795 5793 5790 5788 5786 5783 5781 5778 5775 5772 5769 5766 5763 5760 5757 5754 5751 5748 5744 5741 5737 5732 5728 5724 5720 5715 5711 5707 5703 5700 5697 5694 5690 5686 5683 5679 5674 5668 5664 5662 5660 5657 5653 5651 5651 5648 5645 5643 5642 5641 5640 5638 5637 5635
5815 5815 5814 5814 5814 5813 5812 5812 5810 5809 5808 5806 5804 5803 5801 5799 5797 5795 5793 5791 5789 5786 5784 5782 5779 5777 5774 5771 5767 5764 5761 5758 5755 5752 5749 5746 5743 5739 5736 5732 5728 5724 5719 5714 5710 5705 5701 5696 5692 5689 5686 5683 5680 5676 5672 5669 5665 5660 5654 5650 5649 5646 5642 5638 5637 5636 5633 5630 5630 5629 5628 5627 5626 5624
5811 5811 5811 5810 5809 5809 5808 5807 5806 5804 5802 5801 5799 5797 5795 5793 5791 5789 5787 5785 5783 5780 5778 5775 5772 5770 5767 5764 5760 5757 5754 5751 5747 5744 5741 5737 5734 5730 5727 5723 5718 5714 5709 5704 5700 5695 5691 5687 5683 5680 5677 5673 5670 5666 5663 5659 5655 5651 5646 5641 5638 5636 5632 5628 5625 5624 5622 5619 5618 5617 5616 5615 5614 5613
5807 5807 5807 5806 5805 5805 5804 5802 5801 5799 5797 5795 5793 5791 5789 5787 5785 5784 5781 5779 5777 5774 5771 5768 5765 5762 5759 5756 5753 5749 5746 5743 5739 5736 5732 5728 5724 5720 5716 5712 5708 5704 5699 5694 5690 5687 5683 5679 5675 5672 5668 5665 5661 5658 5654 5651 5647 5643 5638 5633 5629 5626 5623 5620 5616 5613 5612 5610 5609 5607 5606 5605 5604 5604
5804 5803 5803 5802 5801 5800 5799 5798 5796 5794 5792 5790 5788 5786 5784 5782 5780 5778 5775 5773 5770 5767 5764 5761 5758 5755 5751 5748 5745 5742 5738 5734 5731 5727 5723 5719 5716 5711 5707 5702 5698 5694 5690 5686 5683 5679 5675 5672 5668 5664 5660 5657 5653 5649 5645 5642 5638 5635 5631 5626 5622 5618 5615 5612 5609 5607 5605 5603 5602 5600 5598 5597 5597 5597
5801 5800 5799 5798 5797 5796 5794 5793 5791 5789 5788 5786 5783 5781 5779 5776 5774 5771 5769 5766 5762 5759 5756 5753 5750 5747 5743 5740 5737 5733 5730 5727 5723 5719 5715 5711 5707 5703 5698 5694 5689 5686 5682 5679 5675 5671 5668 5664 5660 5656 5653 5649 5645 5641 5638 5634 5631 5627 5623 5620 5616 5612 5609 5607 5604 5601 5600 5598 5596 5594 5593 5592 5591 5592
5797 5796 5795 5793 5792 5791 5789 5788 5786 5784 5782 5780 5778 5775 5773 5770 5767 5764 5761 5758 5755 5752 5749 5745 5742 5739 5736 5733 5729 5726 5722 5718 5714 5710 5706 5702 5698 5693 5689 5685 5682 5678 5674 5671 5667 5664 5660 5656 5652 5648 5645 5642 5638 5635 5631 5628 5624 5621 5617 5614 5611 5608 5605 5602 5600 5597 5595 5593 5591 5589 5588 5588 5587 5587